Regional Weather Roundup
Issued by NWS

Home | Current Version | Previous Version | Text Only | Print | Product List | Glossary Off
Versions: 1 2 3 4 5 6 7 8 9 10 11 12 13 14 15 16 17 18 19 20 21 22 23 24 25 26 27 28 29 30 31 32 33 34 35 36 37 38 39 40 41 42 43 44 45 46 47 48 49 50

000
ASUS43 KDTX 250501
RWRMI
MICHIGAN HOURLY REGIONAL WEATHER ROUNDUP
NATIONAL WEATHER SERVICE DETROIT/PONTIAC MI
100 AM EDT FRI MAY 25 2018

NOTE: "FAIR" INDICATES FEW OR NO CLOUDS BELOW 12,000 FEET WITH NO
SIGNIFICANT WEATHER AND/OR OBSTRUCTION TO VISIBILITY.

MIZ047>049-052>055-059>063-066>070-074>076-081>083-250600-
SOUTHEAST LOWER MICHIGAN

CITY           SKY/WX    TMP DP  RH WIND       PRES   REMARKS
ADRIAN         FAIR      61  54  77 CALM      30.09S
ALMA           FAIR      60  59  94 SE6       30.05S
ANN ARBOR      FAIR      54  53  97 CALM      30.08S
BAD AXE        FAIR      61  52  71 S3        30.04S
CARO           FAIR      60  51  74 SW3       30.03F
DETROIT CITY   FAIR      64  46  52 S7        30.07F
DETROIT        FAIR      66  51  58 S3        30.08F
FLINT          FAIR      65  49  56 SW6       30.05F
GROSSE ILE     FAIR      61  57  85 CALM      30.07S
HILLSDALE      FAIR      55  52  88 S5        30.08F
HOWELL         FAIR      60  50  68 CALM      30.07S

CITY           SKY/WX    TMP DP  RH WIND       PRES   REMARKS
JACKSON        FAIR      60  51  72 CALM      30.07F
LAMBERTVILLE   FAIR      61  53  74 CALM      30.08S
LANSING        FAIR      64  50  60 S3        30.07S
LAPEER         FAIR      55  53  92 CALM      30.06S
MASON          FAIR      63  53  68 CALM      30.07S
MONROE         FAIR      59  56  89 CALM      30.07S
MT. CLEMENS    FAIR      61  53  76 SW7         N/A
PONTIAC        FAIR      66  51  58 CALM      30.06F
PORT HOPE        N/A     69  51  52 SW6       29.99F
PORT HURON     FAIR      55  48  76 CALM      30.06S
TRI CITIES     FAIR      68  54  60 SW7       30.04S
MIDLAND        FAIR      58  55  91 CALM      30.03S
TROY           FAIR      67  48  50 SW6       30.09S
SAGINAW HB     FAIR      63  50  63 SW6       30.03F
$$
MIZ043>046-050>051-056>058-064>065-071>073-077>080-250600-
SOUTHWEST LOWER MICHIGAN

CITY           SKY/WX    TMP DP  RH WIND       PRES   REMARKS
BATTLE CREEK   FAIR      64  52  64 S3        30.07S
BENTON HARBOR  FAIR      63  54  72 SE5       30.04F
BIG RAPIDS     FAIR      58  53  84 CALM      30.04S
COLDWATER      FAIR      63  53  70 S7        30.07F
FREMONT        FAIR      60  56  87 CALM      30.03S
HOLLAND        FAIR      64  56  75 S3        30.04F
GRAND RAPIDS   FAIR      63  58  83 S7        30.05S
IONIA          FAIR      63  54  71 S6        30.04F
KALAMAZOO      FAIR      60  52  74 S5        30.06F
LUDINGTON      FAIR      69  52  54 S5        30.01S
MARSHALL       FAIR      63  51  65 CALM      30.07S
MOUNT PLEASANT FAIR      62  58  87 CALM      30.03S
MUSKEGON       FAIR      64  54  69 CALM      30.03S
SOUTH HAVEN    FAIR      62  56  81 CALM      30.05S
$$
MIZ016>042-250600-
NORTHERN LOWER MICHIGAN

CITY           SKY/WX    TMP DP  RH WIND       PRES   REMARKS
ALPENA         FAIR      63  58  83 CALM      29.99S
BEAVER ISLAND  FAIR      65  46  50 SW14G25   29.95F
BELLAIRE       FAIR      57  54  89 CALM      29.98F
CADILLAC       FAIR      59  51  75 CALM      30.03S
CHARLEVOIX     FAIR      69  48  47 S9        29.99F
FRANKFORT      FAIR      71  49  45 SW5       29.99F
GAYLORD        FAIR      63  50  62 SW9       30.00F
GRAYLING       LGT RAIN  63  51  63 CALM      30.00F
HARBOR SPRINGS FAIR      62  51  69 W3        29.96F
HOUGHTON LAKE  FAIR      65  53  65 SW5       30.03F
MANISTEE       FAIR      58  53  84 E3        30.00S
OSCODA         FAIR      67  52  57 SW6       29.99S
PELLSTON       FAIR      71  48  43 SW7       29.96F
ROGERS CITY    FAIR      67  55  65 SW5       29.98F
TRAVERSE CITY  FAIR      71  49  45 S5        29.97F
$$
MIZ007>008-015-250600-
EASTERN UPPER MICHIGAN

CITY           SKY/WX    TMP DP  RH WIND       PRES   REMARKS
KINROSS        CLOUDY    58  55  90 NW5       29.96F
MACKINAC ISLAN FAIR      60  48  64 SW6       29.96F
NEWBERRY       MOCLDY    64  47  54 SW12G18   29.93F
S. S. MARIE    MOCLDY    61  55  81 S7        29.94F
MUNISING         N/A     67  56  67 SW8       29.90S
$$
MIZ004>006-011>014-085-250600-
CENTRAL UPPER MICHIGAN

CITY           SKY/WX    TMP DP  RH WIND       PRES   REMARKS
MANISTIQUE     FAIR      55  51  88 S6        29.93F
ESCANABA       FAIR      67  55  65 SW7       29.93F
MENOMINEE      FAIR      69  56  62 SW8       29.94F
SAWYER-GWINN   FAIR      67  59  76 W10       29.93F
$$
MIZ001>003-009>011-084-250600-
WESTERN UPPER MICHIGAN

CITY           SKY/WX    TMP DP  RH WIND       PRES   REMARKS
IRON MOUNTAIN  LGT RAIN  65  63  93 N7        29.94F FOG
HOUGHTON       TSTM      67  63  87 S14       29.85F
COPPER HARBOR    N/A     68  61  78 W10G18    29.82F
$$

ABBREVIATIONS USED IN REMARKS
   TC - TEMPERATURE IN CELSIUS
  WCI - WIND CHILL INDEX
   HX - HEAT INDEX
  VSB - VISIBILITY




USA.gov is the U.S. government's official web portal to all federal, state and local government web resources and services.